Satellite: CO-58
Catalog number: 28895
Epoch time:      11167.65410367
Element set:     900
Inclination:      097.9675 deg
RA of node:       044.0646 deg
Eccentricity:    0.0017082
Arg of perigee:   220.2169 deg
Mean anomaly:     139.7777 deg
Mean motion:   14.60116529 rev/day
Decay rate:       2.89e-06 rev/day^2
Epoch rev:           30016
Checksum:              324

Satellite: METEOR-M
Catalog number: 35865
Epoch time:      11167.65873645
Element set:     464
Inclination:      098.7059 deg
RA of node:       222.7943 deg
Eccentricity:    0.0003437
Arg of perigee:   038.9059 deg
Mean anomaly:     321.2325 deg
Mean motion:   14.21839656 rev/day
Decay rate:       1.76e-06 rev/day^2
Epoch rev:            9051
Checksum:              321

Satellite: FALCON
Catalog number: 30776
Epoch time:      11167.84432077
Element set:     108
Inclination:      035.4354 deg
RA of node:       349.0643 deg
Eccentricity:    0.0000784
Arg of perigee:   013.6964 deg
Mean anomaly:     346.3774 deg
Mean motion:   15.04677837 rev/day
Decay rate:      1.235e-05 rev/day^2
Epoch rev:           23499
Checksum:              312

Satellite: RS-38
Catalog number: 35869
Epoch time:      11167.86996656
Element set:     458
Inclination:      098.7025 deg
RA of node:       223.0389 deg
Eccentricity:    0.0005557
Arg of perigee:   038.6416 deg
Mean anomaly:     321.5144 deg
Mean motion:   14.22014018 rev/day
Decay rate:       1.77e-06 rev/day^2
Epoch rev:            9055
Checksum:              325

Satellite: RS-30
Catalog number: 32953
Epoch time:      11167.90605192
Element set:     826
Inclination:      082.5006 deg
RA of node:       162.8974 deg
Eccentricity:    0.0019992
Arg of perigee:   031.3830 deg
Mean anomaly:     328.8440 deg
Mean motion:   12.43013620 rev/day
Decay rate:        1.0e-07 rev/day^2
Epoch rev:           13905
Checksum:              276

Satellite: TACSAT-3
Catalog number: 35001
Epoch time:      11167.92851904
Element set:     619
Inclination:      040.4524 deg
RA of node:       174.3256 deg
Eccentricity:    0.0022662
Arg of perigee:   211.0016 deg
Mean anomaly:     148.9466 deg
Mean motion:   15.49088866 rev/day
Decay rate:      9.993e-05 rev/day^2
Epoch rev:           11704
Checksum:              303

Satellite: MAST
Catalog number: 31126
Epoch time:      11167.96687905
Element set:     185
Inclination:      097.8948 deg
RA of node:       195.2049 deg
Eccentricity:    0.0094949
Arg of perigee:   170.6070 deg
Mean anomaly:     189.6932 deg
Mean motion:   14.53757508 rev/day
Decay rate:       1.84e-06 rev/day^2
Epoch rev:           22105
Checksum:              339

Satellite: ISS
Catalog number: 25544
Epoch time:      11168.09994693
Element set:     549
Inclination:      051.6453 deg
RA of node:       161.1888 deg
Eccentricity:    0.0013916
Arg of perigee:   293.6664 deg
Mean anomaly:     149.7962 deg
Mean motion:   15.64386723 rev/day
Decay rate:     -7.392e-05 rev/day^2
Epoch rev:           72089
Checksum:              356

/EX


_______________________________________________
Via the Keps mailing list courtesy of AMSAT-NA
http://amsat.org/mailman/listinfo/keps

--- ViaMAIL!/WC v1.60d
 * Origin: Chowdanet (401-724-4410) telnet://chowdanet.com  (1:323/120)